Hourly Data Report for July 21, 2021

FISHER BRANCH (AUT)
MANITOBA
Current Station Operator: ECCC - MSC

51°05'00.100" N
97°33'16.200" W
253.00 m
50309J6
71442
WSZ

Download Data

Hourly Data (July 2021)
Hourly Data Report for July 21, 2021
TIME
LST
Temp Definition
°C
Dew Point Definition
°C
Rel Hum Definition
%
Precip. Amount Definition
mm

Wind Dir Definition
10's deg

Wind Spd Definition
km/h
Visibility Definition
km
Stn Press Definition
kPa
Hmdx Definition


Wind Chill Definition


Weather Definition


00:00 18.5 16.3 87 0.0 14 9   98.80     LegendNANA
01:00 18.6 16.3 87 0.0 15 9   98.75     LegendNANA
02:00 18.2 16.0 87 0.0 13 7   98.69     LegendNANA
03:00 18.2 16.1 88 0.0 12 5   98.64     LegendNANA
04:00 18.3 16.2 87 0.0 10 8   98.60     LegendNANA
05:00 18.8 16.7 88 0.0 15 13   98.64     LegendNANA
06:00 19.0 16.9 88 0.0 10 3   98.66     LegendNANA
07:00 19.0 17.3 90 0.0 7 6   98.67     LegendNANA
08:00 19.1 17.8 92 0.0 9 15   98.65     LegendNANA
09:00 19.0 17.7 92 3.0 10 18   98.59     LegendNANA
10:00 19.3 18.1 93 2.3 11 19   98.56     LegendNANA
11:00 20.7 19.3 92 2.7 12 23   98.57 28   LegendNANA
12:00 20.5 18.5 88 0.0 12 24   98.55 27   LegendNANA
13:00 22.6 19.0 80 0.0 12 19   98.47 29   LegendNANA
14:00 23.5 18.9 75 0.0 13 23   98.44 30   LegendNANA
15:00 23.7 19.4 77 0.0 13 20   98.42 31   LegendNANA
16:00 22.3 19.0 81 0.0 13 22   98.38 29   LegendNANA
17:00 23.3 19.4 79 0.0 12 26   98.36 30   LegendNANA
18:00 22.8 19.5 81 0.0 12 20   98.35 30   LegendNANA
19:00 22.5 19.4 83 0.0 11 17   98.34 30   LegendNANA
20:00 21.5 19.0 86 0.0 11 15   98.35 28   LegendNANA
21:00 20.8 18.8 88 0.0 12 16   98.36 27   LegendNANA
22:00 19.9 18.3 90 0.0 11 12   98.39     LegendNANA
23:00 19.3 17.8 91 0.0 11 9   98.38     LegendNANA

Notes on Data Quality.

Legend

  • E = Estimated
  • M = Missing
  • NA = Not Available*
  • [empty] = Indicates an unobserved value
Date modified: